Marshall, MN

12:02 PM CDT on July 25, 2016 (GMT -0500)
Marshall Municipal-Ryan

Weather History for KMML - January, 2013

Change the Weather History Date:

Wednesday, January 2, 2013

  Actual Average Record
Temperature  
Mean Temperature 22 °F -  
Max Temperature 30 °F 25 °F 48 °F (1998)
Min Temperature 12 °F 5 °F -27 °F (1974)
Degree Days  
Heating Degree Days 43    
Moisture  
Dew Point 17 °F    
Average Humidity 78    
Maximum Humidity 93    
Minimum Humidity 69    
Precipitation  
Precipitation 0.00 in - - ()
Sea Level Pressure  
Sea Level Pressure 29.98 in    
Wind  
Wind Speed 13 mph (WNW)    
Max Wind Speed 23 mph    
Max Gust Speed 24 mph    
Visibility 10 miles    
Events      
Averages and records for this station are not official NWS values.
T = Trace of Precipitation, MM = Missing Value Source: NWS Daily Summary

Daily Weather History Graph

Daily Weather History Graph

Search for Another Location

Airport or City:

Trip Planner

Search our weather history database for the weather conditions in past years. The results will help you decide how hot, cold, wet, or windy it might be!

Date:

Astronomy

Jan. 02, 2013 Rise Set
Actual Time 7:59 AM CST 4:55 PM CST
Civil Twilight 7:26 AM CST 5:28 PM CST
Nautical Twilight 6:49 AM CST 6:05 PM CST
Astronomical Twilight 6:14 AM CST 6:40 PM CST
Moon 10:43 PM CST (1/2) 10:29 AM CST (1/2)
Length of Visible Light 10h 02m
Length of Day
8h 55m
Waning Gibbous, 75% of the Moon is Illuminated
Jan 2
Waning Gibbous
Jan 4
Last Quarter
Jan 11
New
Jan 18
First Quarter
Jan 26
Full

Hourly Weather History & Observations

Time (CST) Temp. Windchill Dew Point Humidity Pressure Visibility Wind Dir Wind Speed Gust Speed Precip Events Conditions
12:15 AM 19.4 °F 6.0 °F 14.0 °F 80% 29.95 in - SW 13.8 mph 18.4 mph N/A   Clear
12:35 AM 19.4 °F 7.2 °F 15.8 °F 86% 29.95 in - WSW 11.5 mph - N/A   Unknown
12:55 AM 19.4 °F 7.9 °F 15.8 °F 86% 29.94 in 10.0 mi WSW 10.4 mph - N/A   Scattered Clouds
1:15 AM 19.4 °F 10.4 °F 12.2 °F 74% 29.94 in 10.0 mi West 6.9 mph - N/A   Partly Cloudy
1:35 AM 17.6 °F 3.2 °F 12.2 °F 79% 29.93 in 8.0 mi WSW 15.0 mph - N/A   Clear
1:55 AM 17.6 °F 2.7 °F 12.2 °F 79% 29.92 in 10.0 mi WSW 16.1 mph - N/A   Clear
2:15 AM 17.6 °F 4.3 °F 15.8 °F 93% 29.93 in 10.0 mi SW 12.7 mph - N/A   Clear
2:35 AM 17.6 °F 3.7 °F 12.2 °F 79% 29.93 in 10.0 mi SW 13.8 mph - N/A   Clear
2:55 AM 15.8 °F 10.2 °F 12.2 °F 86% 29.93 in 10.0 mi South 3.5 mph - N/A   Clear
3:15 AM 15.8 °F 10.2 °F 10.4 °F 79% 29.92 in - WSW 3.5 mph - N/A   Clear
3:35 AM 15.8 °F 3.4 °F 10.4 °F 79% 29.93 in - WSW 10.4 mph - N/A   Clear
3:55 AM 15.8 °F 0.3 °F 8.6 °F 73% 29.92 in 10.0 mi WSW 16.1 mph - N/A   Clear
4:15 AM 15.8 °F -0.2 °F 8.6 °F 73% 29.92 in 10.0 mi WSW 17.3 mph - N/A   Clear
4:35 AM 14.0 °F -0.2 °F 10.4 °F 86% 29.92 in 10.0 mi WSW 12.7 mph - N/A   Scattered Clouds
4:55 AM 15.8 °F 2.1 °F 10.4 °F 79% 29.90 in 10.0 mi WSW 12.7 mph - N/A   Mostly Cloudy
5:15 AM 15.8 °F 4.2 °F 12.2 °F 86% 29.91 in 10.0 mi WSW 9.2 mph - N/A   Partly Cloudy
5:35 AM 14.0 °F -0.2 °F 8.6 °F 79% 29.90 in 10.0 mi WSW 12.7 mph - N/A   Clear
5:55 AM 15.8 °F 0.9 °F 8.6 °F 73% 29.90 in 10.0 mi WSW 15.0 mph - N/A   Clear
6:15 AM 17.6 °F 3.7 °F 12.2 °F 79% 29.90 in 10.0 mi West 13.8 mph - N/A   Mostly Cloudy
6:35 AM 19.4 °F 5.0 °F 12.2 °F 74% 29.90 in 10.0 mi West 16.1 mph - N/A   Overcast
6:55 AM 19.4 °F 5.5 °F 14.0 °F 80% 29.90 in 10.0 mi West 15.0 mph - N/A   Overcast
7:15 AM 19.4 °F 5.5 °F 15.8 °F 86% 29.91 in - West 15.0 mph - N/A   Overcast
7:35 AM 21.2 °F 8.9 °F 15.8 °F 80% 29.91 in - West 12.7 mph - N/A   Overcast
7:55 AM 21.2 °F 8.9 °F 15.8 °F 80% 29.92 in - West 12.7 mph - N/A   Overcast
8:15 AM 21.2 °F 7.8 °F 17.6 °F 86% 29.92 in - West 15.0 mph - N/A   Overcast
8:35 AM 21.2 °F 8.3 °F 17.6 °F 86% 29.92 in - West 13.8 mph - N/A   Unknown
8:55 AM 23.0 °F 10.6 °F 19.4 °F 86% 29.92 in - West 13.8 mph - N/A   Overcast
9:15 AM 24.8 °F 12.9 °F 19.4 °F 80% 29.93 in - West 13.8 mph - N/A   Overcast
9:35 AM 24.8 °F 12.9 °F 19.4 °F 80% 29.93 in - West 13.8 mph - N/A   Overcast
9:55 AM 24.8 °F 13.4 °F 21.2 °F 86% 29.94 in - West 12.7 mph - N/A   Overcast
10:15 AM 26.6 °F 16.2 °F 21.2 °F 80% 29.94 in - West 11.5 mph - N/A   Overcast
10:35 AM 26.6 °F 15.7 °F 21.2 °F 80% 29.94 in - West 12.7 mph - N/A   Overcast
10:55 AM 28.4 °F 16.6 °F 21.2 °F 74% 29.94 in 10.0 mi WNW 16.1 mph - N/A   Overcast
11:15 AM 28.4 °F 17.0 °F 23.0 °F 80% 29.94 in - WNW 15.0 mph - N/A   Overcast
11:35 AM 28.4 °F 17.0 °F 23.0 °F 80% 29.94 in 10.0 mi WNW 15.0 mph - N/A   Overcast
11:55 AM 30.2 °F 20.2 °F 23.0 °F 75% 29.94 in 10.0 mi WNW 12.7 mph - N/A   Overcast
12:15 PM 30.2 °F 21.3 °F 24.8 °F 80% 29.94 in 10.0 mi WNW 10.4 mph - N/A   Overcast
12:35 PM 30.2 °F 20.2 °F 24.8 °F 80% 29.93 in 10.0 mi WNW 12.7 mph - N/A   Overcast
12:55 PM 30.2 °F 19.8 °F 24.8 °F 80% 29.93 in 10.0 mi WNW 13.8 mph - N/A   Overcast
1:15 PM 30.2 °F 19.8 °F 24.8 °F 80% 29.93 in 10.0 mi WNW 13.8 mph - N/A   Overcast
1:35 PM 30.2 °F 19.3 °F 24.8 °F 80% 29.93 in 10.0 mi WNW 15.0 mph - N/A   Overcast
1:55 PM 30.2 °F 19.3 °F 24.8 °F 80% 29.94 in 10.0 mi WNW 15.0 mph - N/A   Overcast
2:15 PM 30.2 °F 18.5 °F 24.8 °F 80% 29.94 in 10.0 mi NW 17.3 mph - N/A   Overcast
2:35 PM 30.2 °F 16.8 °F 23.0 °F 75% 29.95 in 9.0 mi NW 23.0 mph - N/A   Overcast
2:55 PM 30.2 °F 17.8 °F 23.0 °F 75% 29.96 in - NNW 19.6 mph - N/A   Overcast
3:15 PM 28.4 °F 16.2 °F 21.2 °F 74% 29.97 in - NNW 17.3 mph - N/A   Overcast
3:35 PM 28.4 °F 15.4 °F 19.4 °F 69% 29.98 in - NNW 19.6 mph - N/A   Mostly Cloudy
3:55 PM 26.6 °F 13.8 °F 19.4 °F 74% 29.99 in - NNW 17.3 mph - N/A   Scattered Clouds
4:15 PM 28.4 °F 15.4 °F 19.4 °F 69% 30.00 in - NNW 19.6 mph - N/A   Mostly Cloudy
4:35 PM 26.6 °F 14.3 °F 19.4 °F 74% 30.00 in - NNW 16.1 mph - N/A   Overcast
4:55 PM 26.6 °F 16.2 °F 19.4 °F 74% 30.01 in - NNW 11.5 mph - N/A   Overcast
5:15 PM 26.6 °F 15.7 °F 19.4 °F 74% 30.02 in 10.0 mi NNW 12.7 mph - N/A   Overcast
5:35 PM 26.6 °F 15.2 °F 19.4 °F 74% 30.03 in 10.0 mi NW 13.8 mph - N/A   Overcast
5:55 PM 26.6 °F 15.7 °F 19.4 °F 74% 30.04 in 10.0 mi NNW 12.7 mph - N/A   Overcast
6:15 PM 26.6 °F 15.7 °F 19.4 °F 74% 30.05 in 10.0 mi NNW 12.7 mph - N/A   Overcast
6:35 PM 26.6 °F 16.2 °F 19.4 °F 74% 30.05 in 10.0 mi NW 11.5 mph - N/A   Overcast
6:55 PM 26.6 °F 16.2 °F 19.4 °F 74% 30.06 in 10.0 mi NW 11.5 mph - N/A   Overcast
7:15 PM 24.8 °F 14.6 °F 19.4 °F 80% 30.07 in 10.0 mi NW 10.4 mph - N/A   Overcast
7:55 PM 24.8 °F 13.4 °F 19.4 °F 80% 30.08 in 10.0 mi NW 12.7 mph - N/A   Overcast
8:15 PM 24.8 °F 14.0 °F 19.4 °F 80% 30.08 in 10.0 mi NNW 11.5 mph - N/A   Overcast
8:35 PM 24.8 °F 13.4 °F 19.4 °F 80% 30.09 in 10.0 mi NNW 12.7 mph - N/A   Overcast
8:55 PM 24.8 °F 12.4 °F 19.4 °F 80% 30.10 in 10.0 mi NNW 15.0 mph 18.4 mph N/A   Overcast
9:15 PM 23.0 °F 10.6 °F 15.8 °F 74% 30.11 in 10.0 mi NNW 13.8 mph - N/A   Overcast
9:35 PM 21.2 °F 5.2 °F 15.8 °F 80% 30.13 in 10.0 mi NNW 21.9 mph - N/A   Overcast
9:55 PM 19.4 °F 5.0 °F 14.0 °F 80% 30.14 in 10.0 mi NNW 16.1 mph - N/A   Overcast
10:15 PM 17.6 °F 1.7 °F 10.4 °F 73% 30.15 in 10.0 mi NNW 18.4 mph - N/A   Overcast
10:35 PM 15.8 °F -0.2 °F 10.4 °F 79% 30.15 in 10.0 mi NNW 17.3 mph - N/A   Scattered Clouds
10:55 PM 15.8 °F -1.1 °F 8.6 °F 73% 30.16 in 10.0 mi NNW 19.6 mph 24.2 mph N/A   Scattered Clouds
11:15 PM 15.8 °F -1.1 °F 8.6 °F 73% 30.16 in 10.0 mi NNW 19.6 mph - N/A   Overcast
11:35 PM 15.8 °F -0.6 °F 8.6 °F 73% 30.17 in 10.0 mi NNW 18.4 mph 23.0 mph N/A   Overcast
11:55 PM 12.2 °F -6.3 °F 6.8 °F 79% 30.17 in 10.0 mi NW 20.7 mph - N/A   Scattered Clouds